Location: Rounton
(54.4000°N, 1.3500°W)
Time: 13:47:43
(UTC+00:00)

Transit 2A Rocket - Pass Details

Date: 07 December 2021
Orbit: 584 x 918 km, 66.7° (Epoch: 17 January)

Event Time Altitude Azimuth Distance (km) Brightness Sun altitude
Rises 09:21:13 0° 256° (WSW) 3,446 8.2 6.0°
Reaches altitude 10° 09:23:50 10° 265° (W) 2,547 7.4 6.2°
Maximum altitude 09:29:23 38° 332° (NNW) 1,363 5.9 6.7°
Drops below altitude 10° 09:35:06 10° 40° (NE) 2,623 7.6 7.1°
Sets 09:37:50 0° 49° (NE) 3,560 8.4 7.4°
